When you browse on this site, cookies collect data to enhance your experience and personalize the content and advertising you see.
Visit our Privacy Policy to learn more. By continuing to use the site, you agree to this use of cookies and data.
  • In Österreich
  • Länderverzeichnis
  • Für 7 Tage
  • Wassertemperatur
  • Satellitenkarten
  • Wetterkarte
  • News
  • Widgets
  • user-avatar
    Anmelden

    Stündliche Wetter Chikosh-Horonda

    Heute, 11 Dezember, Dienstag

    Zeit Temperatur Niederschläge Wind Luftdruck Luftfeuchtigkeit
    00:00 +1°C° 0.1 mm 1 m/S 748 mmHg 100%
    01:00 +1°C° 0.3 mm 0 m/S 748 mmHg 100%
    02:00 0°C° 0 mm 0 m/S 748 mmHg 95%
    03:00 +1°C° 0 mm 1 m/S 748 mmHg 94%
    04:00 +1°C° 0 mm 1 m/S 748 mmHg 95%
    05:00 +1°C° 0 mm 1 m/S 748 mmHg 96%
    06:00 0°C° 0 mm 1 m/S 748 mmHg 97%
    07:00 -1°C° 0 mm 0 m/S 749 mmHg 97%
    08:00 0°C° 0 mm 1 m/S 749 mmHg 98%
    09:00 0°C° 0 mm 1 m/S 749 mmHg 98%
    10:00 +1°C° 0 mm 1 m/S 749 mmHg 96%
    11:00 0°C° 0 mm 0 m/S 749 mmHg 95%
    12:00 +2°C° 0 mm 1 m/S 749 mmHg 96%
    13:00 +2°C° 0 mm 1 m/S 749 mmHg 96%
    14:00 +3°C° 0 mm 1 m/S 749 mmHg 92%
    15:00 +2°C° 0 mm 2 m/S 750 mmHg 92%
    16:00 +2°C° 0 mm 2 m/S 750 mmHg 96%
    17:00 +1°C° 0.4 mm 3 m/S 750 mmHg 99%
    18:00 +2°C° 0.2 mm 2 m/S 750 mmHg 98%
    19:00 -1°C° 0 mm 4 m/S 750 mmHg 98%
    20:00 -1°C° 0 mm 3 m/S 750 mmHg 99%
    21:00 -1°C° 0 mm 3 m/S 750 mmHg 99%
    22:00 -2°C° 0.1 mm 4 m/S 750 mmHg 99%
    23:00 -2°C° 0.1 mm 4 m/S 750 mmHg 98%

    Morgen, 12 Dezember, Mittwoch

    Zeit Temperatur Niederschläge Wind Luftdruck Luftfeuchtigkeit
    00:00 -2°C° 0 mm 4 m/S 750 mmHg 97%
    01:00 -2°C° 0.1 mm 4 m/S 750 mmHg 99%
    02:00 -2°C° 0.2 mm 4 m/S 750 mmHg 99%
    03:00 -2°C° 0.7 mm 4 m/S 750 mmHg 100%
    04:00 -2°C° 0.3 mm 4 m/S 750 mmHg 98%
    05:00 -2°C° 0 mm 4 m/S 750 mmHg 98%
    06:00 -1°C° 0 mm 3 m/S 750 mmHg 97%
    07:00 -1°C° 0 mm 3 m/S 751 mmHg 95%
    08:00 -1°C° 0 mm 2 m/S 751 mmHg 95%
    09:00 0°C° 0 mm 1 m/S 751 mmHg 94%
    10:00 -1°C° 0 mm 2 m/S 751 mmHg 92%
    11:00 +1°C° 0 mm 2 m/S 752 mmHg 88%
    12:00 +3°C° 0 mm 1 m/S 752 mmHg 83%
    13:00 +2°C° 0 mm 0 m/S 752 mmHg 82%
    14:00 +4°C° 0 mm 1 m/S 752 mmHg 80%
    15:00 +3°C° 0 mm 2 m/S 752 mmHg 81%
    16:00 +2°C° 0 mm 2 m/S 752 mmHg 88%
    17:00 +1°C° 0 mm 2 m/S 752 mmHg 94%
    18:00 -1°C° 0 mm 2 m/S 752 mmHg 98%
    19:00 -1°C° 0 mm 2 m/S 752 mmHg 100%
    20:00 -2°C° 0 mm 2 m/S 752 mmHg 98%
    21:00 -2°C° 0 mm 2 m/S 753 mmHg 98%
    22:00 -3°C° 0 mm 2 m/S 753 mmHg 99%
    23:00 -3°C° 0 mm 2 m/S 753 mmHg 99%

    übermorgen, 13 Dezember, Donnerstag

    Zeit Temperatur Niederschläge Wind Luftdruck Luftfeuchtigkeit
    00:00 -2°C° 0 mm 3 m/S 753 mmHg 96%
    01:00 -3°C° 0 mm 4 m/S 753 mmHg 95%
    02:00 -3°C° 0 mm 4 m/S 753 mmHg 94%
    03:00 -3°C° 0 mm 4 m/S 753 mmHg 94%
    04:00 -3°C° 0 mm 4 m/S 752 mmHg 95%
    05:00 -3°C° 0.1 mm 4 m/S 752 mmHg 96%
    06:00 -3°C° 0.3 mm 4 m/S 752 mmHg 97%
    07:00 -3°C° 0.5 mm 4 m/S 752 mmHg 97%
    08:00 -2°C° 0.4 mm 4 m/S 752 mmHg 96%
    09:00 -2°C° 0.3 mm 4 m/S 752 mmHg 96%
    10:00 -2°C° 0.2 mm 5 m/S 752 mmHg 95%
    11:00 -2°C° 0.1 mm 5 m/S 752 mmHg 95%
    12:00 -2°C° 0.1 mm 5 m/S 752 mmHg 95%
    13:00 -2°C° 0.1 mm 5 m/S 752 mmHg 95%
    14:00 -1°C° 0 mm 4 m/S 752 mmHg 94%
    15:00 -1°C° 0 mm 4 m/S 752 mmHg 92%
    16:00 -1°C° 0 mm 4 m/S 752 mmHg 92%
    17:00 -1°C° 0 mm 4 m/S 752 mmHg 93%
    18:00 0°C° 0 mm 3 m/S 752 mmHg 94%
    19:00 -1°C° 0 mm 2 m/S 753 mmHg 95%
    20:00 -1°C° 0 mm 2 m/S 753 mmHg 96%
    21:00 +1°C° 0 mm 1 m/S 753 mmHg 97%
    22:00 -1°C° 0 mm 2 m/S 753 mmHg 97%
    23:00 -1°C° 0 mm 2 m/S 753 mmHg 96%

    14 Dezember, Freitag

    Zeit Temperatur Niederschläge Wind Luftdruck Luftfeuchtigkeit
    00:00 -1°C° 0 mm 2 m/S 754 mmHg 96%
    01:00 -2°C° 0 mm 2 m/S 754 mmHg 96%
    02:00 -2°C° 0 mm 2 m/S 754 mmHg 95%
    03:00 -2°C° 0 mm 2 m/S 754 mmHg 93%
    04:00 -2°C° 0 mm 2 m/S 754 mmHg 92%
    05:00 -2°C° 0 mm 2 m/S 754 mmHg 92%
    06:00 -2°C° 0 mm 2 m/S 754 mmHg 92%
    07:00 -2°C° 0 mm 2 m/S 755 mmHg 89%
    08:00 -2°C° 0 mm 2 m/S 755 mmHg 87%
    09:00 -2°C° 0 mm 2 m/S 755 mmHg 87%
    10:00 -2°C° 0 mm 2 m/S 756 mmHg 89%
    11:00 0°C° 0 mm 1 m/S 756 mmHg 92%
    12:00 -2°C° 0 mm 2 m/S 756 mmHg 95%
    13:00 -2°C° 0 mm 2 m/S 756 mmHg 96%
    14:00 -2°C° 0 mm 2 m/S 756 mmHg 95%
    15:00 -2°C° 0 mm 2 m/S 756 mmHg 93%
    16:00 -3°C° 0 mm 2 m/S 756 mmHg 94%
    17:00 -3°C° 0 mm 2 m/S 757 mmHg 97%
    18:00 -1°C° 0 mm 1 m/S 757 mmHg 96%
    19:00 -3°C° 0 mm 2 m/S 757 mmHg 96%
    20:00 -1°C° 0 mm 1 m/S 757 mmHg 96%
    21:00 -2°C° 0 mm 0 m/S 757 mmHg 97%
    22:00 -1°C° 0 mm 1 m/S 757 mmHg 96%
    23:00 -1°C° 0 mm 1 m/S 757 mmHg 96%

    15 Dezember, Samstag

    Zeit Temperatur Niederschläge Wind Luftdruck Luftfeuchtigkeit
    00:00 -1°C° 0 mm 1 m/S 757 mmHg 96%
    01:00 -2°C° 0 mm 0 m/S 757 mmHg 95%
    02:00 -1°C° 0 mm 1 m/S 757 mmHg 96%

    16 Dezember, Sonntag

    Zeit Temperatur Niederschläge Wind Luftdruck Luftfeuchtigkeit
    Mehr zeigen